Regional Weather Roundup
Issued by NWS

Home | Current Version | Previous Version | Text Only | Print | Product List | Glossary Off
Versions: 1 2 3 4 5 6 7 8 9 10 11 12 13 14 15 16 17 18 19 20 21 22 23 24 25 26 27 28 29 30 31 32 33 34 35 36 37 38 39 40 41 42 43 44 45 46 47 48 49 50

000
ASUS43 KDMX 281106
RWRIA

WEATHER ROUNDUP FOR IOWA
NATIONAL WEATHER SERVICE DES MOINES IA
600 AM CDT WED JUN 28 2017

NOTE: "FAIR" INDICATES FEW OR NO CLOUDS BELOW 12,000 FEET WITH NO
SIGNIFICANT WEATHER AND/OR OBSTRUCTIONS TO VISIBILITY.

* - THESE STATIONS ARE NOT NWS STATIONS...THUS NOT UNDER NWS
QUALITY CONTROL.  THEY ALSO DO NOT REPORT WEATHER SUCH
AS PRECIPITATION OR FOG.

IAZ001>003-012>014-020>022-031>034-043>046-281200-
   NORTHWEST IOWA

CITY           SKY/WX    TMP DP  RH WIND       PRES   REMARKS
CARROLL *      DRIZZLE   66  64  94 SW8       29.68F
DENISON *      CLOUDY    66  63  88 S9G15     29.71R
LE MARS *      CLOUDY    66  64  94 S12       29.66R
ORANGE CITY *  MOCLDY    64  64 100 S17G24    29.63S
SHELDON *      CLOUDY    66  64  94 S16G24    29.63R
SIOUX CITY     CLOUDY    66  65  96 S10       29.65F
SPENCER        CLOUDY    67  65  93 S18G28    29.63F
STORM LAKE *   CLOUDY    64  63  94 SW8       29.69R
$$

IAZ055>058-069>071-079>083-090>094-281200-
   SOUTHWEST IOWA

CITY           SKY/WX    TMP DP  RH WIND       PRES   REMARKS
ATLANTIC *     CLOUDY    66  64  94 S23G32    29.76R
AUDUBON *      CLOUDY    66  61  82 S10G16    29.71F
CLARINDA *     CLOUDY    64  64 100 S13       29.83F FOG
COUNCIL BLFS * CLOUDY    64  64 100 S14G20    29.74F
CRESTON *      CLOUDY    66  64  94 S13       29.85F
HARLAN  *      CLOUDY    66  64  94 SW14G24   29.78R
LAMONI         RAIN      69  66  90 SW9       29.90R
RED OAK *      CLOUDY    64  63  94 S14G21    29.78F
SHENANDOAH *   CLOUDY    64  63  94 S13       29.80F
$$

IAZ047>049-059>061-072>074-084-281200-
   CENTRAL IOWA

CITY           SKY/WX    TMP DP  RH WIND       PRES   REMARKS
AMES           RAIN      68  67  96 SW15      29.77F FOG
ANKENY *       LGT RAIN  68  66  94 SW9       29.79F
BOONE *        RAIN      66  63  88 SW23G30   29.75F
CHARITON *     CLOUDY    72  64  78 SW13G20   29.86R
DES MOINES     LGT RAIN  70  65  84 SW15      29.80F
GRINNELL*      DRIZZLE   68  64  87 S13       29.81S
KNOXVILLE *    CLOUDY    72  64  78 SW16      29.81R
MARSHALLTOWN   CLOUDY    69  65  86 SW18G25   29.73F
NEWTON *       CLOUDY    70  66  88 SW12      29.78F
PELLA *        CLOUDY    70  64  83 SW7       29.83R
PERRY *        RAIN      68  63  84 SW18G28   29.77F
$$

IAZ004>006-015-016-023>025-035-036-281200-
   NORTH CENTRAL IOWA

CITY           SKY/WX    TMP DP  RH WIND       PRES   REMARKS
ALGONA *       LGT RAIN  68  68 100 S16G23    29.65F
CLARION *        N/A     68  68 100 S21G28    29.70F
ESTHERVILLE    CLOUDY    67  66  97 S18G28    29.59F
FORT DODGE *   CLOUDY    66  63  88 S13       29.70F
MASON CITY     LGT RAIN  69  64  84 SW35G47   29.69F
FOREST CITY *  LGT RAIN  68  61  77 S26G37    29.67S
WEBSTER CITY * LGT RAIN  66  64  94 S16G22    29.72F
IOWA FALLS *   RAIN      69  64  86 SW22G37   29.72F
$$

IAZ007>011-017>019-026>030-037>042-050>054-066-281200-
   NORTHEAST IOWA

CITY           SKY/WX    TMP DP  RH WIND       PRES   REMARKS
CEDAR RAPIDS   TSTM      64  63  96 S9G18     29.83R FOG
CHARLES CITY * CLOUDY    63  61  94 SE15      29.75S
CLINTON *      CLOUDY    66  56  70 S14       29.89S
DECORAH *      RAIN      61  61 100 S12G20    29.79R
DUBUQUE        CLOUDY    64  54  69 S17       29.84F
MONTICELLO *   LGT RAIN  63  59  88 S9        29.84R
OELWEIN *      CLOUDY    64  61  88 SE15G29   29.82R
WATERLOO       CLOUDY    66  60  81 S12       29.75R
$$

IAZ064-065-067-068-078-281200-
   EAST CENTRAL IOWA

CITY           SKY/WX    TMP DP  RH WIND       PRES   REMARKS
IOWA CITY      TSTM      67  61  81 S16       29.84F
MT. PLEASANT * MOCLDY    69  60  74 S18G26    29.85F
MUSCATINE *    LGT RAIN  66  61  82 SE8G18    29.88R
QUAD CITIES    CLOUDY    67  56  67 S10       29.88F
$$

IAZ062-063-075>077-085>089-095>099-281200-
   SOUTHEAST IOWA

CITY           SKY/WX    TMP DP  RH WIND       PRES   REMARKS
BURLINGTON     MOCLDY    68  61  78 S15G23    29.88F
FAIRFIELD *    CLOUDY    68  63  83 S13G22    29.83R
FORT MADISON * MOCLDY    68  63  83 S12       29.89F
KEOKUK *       CLOUDY    70  63  78 MISG      29.88F
OSKALOOSA *    RAIN      68  65  88 SW16G32   29.84R
CENTERVILLE *    N/A     70  63  78 SW13G22   29.89R
OTTUMWA        CLOUDY    72  64  76 SW14      29.84R
WASHINGTON *   MOCLDY    68  63  83 S15G24    29.84R
$$

ABBREVIATIONS USED IN REMARKS
   TC - TEMPERATURES IN CELSIUS
  WCI - WIND CHILL INDEX
   HX - HEAT INDEX
  VSB - VISIBILITY
$$





USA.gov is the U.S. government's official web portal to all federal, state and local government web resources and services.